Mount Shasta, CA

7:29 AM PDT on June 23, 2018 (GMT -0700)
Mount Shasta

Weather History for KMHS - October, 2017

Change the Weather History Date:

Sunday, October 8, 2017

  Actual Average Record
Temperature  
Mean Temperature 47 °F 54 °F  
Max Temperature 62 °F 70 °F 88 °F (1996)
Min Temperature 32 °F 38 °F 23 °F (1990)
Degree Days  
Heating Degree Days 18 11  
Month to date heating degree days 111 78  
Since 1 July heating degree days 266 315  
Cooling Degree Days 0 0  
Month to date cooling degree days 0 0  
Year to date cooling degree days 700 287  
Moisture  
Dew Point 31 °F    
Average Humidity 57    
Maximum Humidity 73    
Minimum Humidity 20    
Precipitation  
Precipitation 0.00 in 0.04 in 0.85 in (1929)
Month to date precipitation 0.00 0.27  
Year to date precipitation 38.99 28.27  
Sea Level Pressure  
Sea Level Pressure 30.13 in    
Wind  
Wind Speed 4 mph (NNE)    
Max Wind Speed 14 mph    
Max Gust Speed 25 mph    
Visibility 10 miles    
Events      
T = Trace of Precipitation, MM = Missing Value Source: NWS Daily Summary

Daily Weather History Graph

Daily Weather History Graph

Search for Another Location

Airport or City:

Astronomy

Oct. 08, 2017 Rise Set
Actual Time 7:13 AM PDT 6:38 PM PDT
Civil Twilight 6:46 AM PDT 7:06 PM PDT
Nautical Twilight 6:14 AM PDT 7:38 PM PDT
Astronomical Twilight 5:42 AM PDT 8:10 PM PDT
Moon 9:03 PM PDT (10/8) 10:23 AM PDT (10/8)
Length of Visible Light 12h 20m
Length of Day
11h 25m
Waning Gibbous, 88% of the Moon is Illuminated
Oct 8
Waning Gibbous
Oct 12
Last Quarter
Oct 19
New
Oct 27
First Quarter
Nov 3
Full

Hourly Weather History & Observations

Time (PDT) Temp. Windchill Dew Point Humidity Pressure Visibility Wind Dir Wind Speed Gust Speed Precip Events Conditions
12:56 AM 45.0 °F 40.1 °F 35.1 °F 68% 30.03 in 10.0 mi NNW 9.2 mph 20.7 mph N/A   Clear
1:56 AM 45.0 °F 41.2 °F 35.1 °F 68% 30.04 in 10.0 mi Variable 6.9 mph 24.2 mph N/A   Clear
2:56 AM 44.1 °F 39.0 °F 35.1 °F 71% 30.04 in 10.0 mi NNW 9.2 mph 19.6 mph N/A   Clear
3:56 AM 44.1 °F 39.5 °F 35.1 °F 71% 30.05 in 10.0 mi NNW 8.1 mph 23.0 mph N/A   Partly Cloudy
4:56 AM 42.1 °F 36.6 °F 34.0 °F 73% 30.07 in 10.0 mi NW 9.2 mph 24.2 mph N/A   Clear
5:56 AM 41.0 °F 38.0 °F 34.0 °F 76% 30.10 in 10.0 mi NE 4.6 mph - N/A   Partly Cloudy
6:56 AM 42.1 °F 38.4 °F 34.0 °F 73% 30.11 in 10.0 mi Variable 5.8 mph - N/A   Overcast
7:04 AM 42.1 °F - 34.0 °F 73% 30.08 in 10.0 mi Calm Calm - N/A   Overcast
7:30 AM 42.1 °F - 34.0 °F 73% 30.08 in 10.0 mi Calm Calm - N/A   Overcast
7:52 AM 42.8 °F 38.6 °F 33.8 °F 70% 30.08 in 10.0 mi ENE 6.9 mph - N/A   Overcast
7:56 AM 42.1 °F 37.1 °F 34.0 °F 73% 30.13 in 10.0 mi ENE 8.1 mph - N/A   Overcast
8:56 AM 43.0 °F 37.7 °F 34.0 °F 71% 30.14 in 10.0 mi East 9.2 mph 18.4 mph N/A   Overcast
9:56 AM 46.9 °F - 36.0 °F 66% 30.16 in 10.0 mi Variable 5.8 mph - N/A   Overcast
10:56 AM 52.0 °F - 35.1 °F 53% 30.16 in 10.0 mi Variable 3.5 mph - N/A   Overcast
11:56 AM 52.0 °F - 35.1 °F 53% 30.15 in 10.0 mi Variable 3.5 mph - N/A   Overcast
12:56 PM 57.0 °F - 33.1 °F 40% 30.13 in 10.0 mi Variable 4.6 mph - N/A   Clear
1:56 PM 59.0 °F - 24.1 °F 26% 30.10 in 10.0 mi West 9.2 mph 17.3 mph N/A   Clear
2:56 PM 62.1 °F - 21.9 °F 21% 30.09 in 10.0 mi Variable 5.8 mph - N/A   Clear
3:56 PM 62.1 °F - 21.9 °F 21% 30.11 in 10.0 mi Variable 4.6 mph - N/A   Clear
4:56 PM 59.0 °F - 23.0 °F 25% 30.12 in 10.0 mi Calm Calm - N/A   Clear
5:56 PM 55.9 °F - 26.1 °F 32% 30.14 in 10.0 mi Calm Calm - N/A   Clear
6:56 PM 48.9 °F - 28.9 °F 46% 30.17 in 10.0 mi Calm Calm - N/A   Clear
7:56 PM 45.0 °F - 28.0 °F 52% 30.21 in 10.0 mi Calm Calm - N/A   Clear
8:56 PM 41.0 °F 39.0 °F 26.1 °F 55% 30.24 in 10.0 mi ENE 3.5 mph - N/A   Clear
9:56 PM 37.0 °F - 26.1 °F 65% 30.27 in 10.0 mi Calm Calm - N/A   Clear
10:56 PM 36.0 °F 33.3 °F 25.0 °F 64% 30.27 in 10.0 mi NE 3.5 mph - N/A   Clear
11:56 PM 35.1 °F - 23.0 °F 61% 30.28 in 10.0 mi Calm Calm - N/A   Clear